Time,TemperatureF,DewpointF,PressureIn,WindDirection,WindDirectionDegrees,WindSpeedMPH,WindSpeedGustMPH,Humidity,HourlyPrecipIn,Conditions,Clouds,dailyrainin,SolarRadiationWatts/m^2,SoftwareType,DateUTC
2013-01-24 00:03:00,3.0,-2.0,-100.00,West,264,1.0,7.0,79,0.00,,,0.00,0.000000,,2013-01-24 05:03:00,
2013-01-24 00:33:00,2.0,-3.0,-100.00,WNW,286,0.0,7.0,78,0.00,,,0.00,0.000000,,2013-01-24 05:33:00,
2013-01-24 00:43:00,2.0,-3.0,-100.00,WNW,286,0.0,7.0,78,0.00,,,0.00,0.000000,,2013-01-24 05:43:00,
2013-01-24 00:53:00,2.0,-3.0,-100.00,WNW,286,0.0,7.0,78,0.00,,,0.00,0.000000,,2013-01-24 05:53:00,
2013-01-24 01:03:00,2.0,-3.0,-100.00,WNW,286,0.0,7.0,78,0.00,,,0.00,0.000000,,2013-01-24 06:03:00,
2013-01-24 01:33:00,2.0,-3.0,-100.00,SE,126,0.0,0.0,80,0.00,,,0.00,0.000000,,2013-01-24 06:33:00,
2013-01-24 01:42:00,2.0,-3.0,-100.00,SE,126,0.0,0.0,80,0.00,,,0.00,0.000000,,2013-01-24 06:42:00,
2013-01-24 01:53:00,2.0,-3.0,-100.00,SE,126,0.0,0.0,80,0.00,,,0.00,0.000000,,2013-01-24 06:53:00,
2013-01-24 02:03:00,2.0,-3.0,-100.00,SE,126,0.0,0.0,80,0.00,,,0.00,0.000000,,2013-01-24 07:03:00,
2013-01-24 02:34:00,3.0,-1.0,-100.00,SW,231,0.0,0.0,82,0.00,,,0.00,0.000000,,2013-01-24 07:34:00,
2013-01-24 02:43:00,3.0,-1.0,-100.00,SW,231,0.0,0.0,82,0.00,,,0.00,0.000000,,2013-01-24 07:43:00,
2013-01-24 02:53:00,3.0,-1.0,-100.00,SW,231,0.0,0.0,82,0.00,,,0.00,0.000000,,2013-01-24 07:53:00,
2013-01-24 03:02:00,3.0,-1.0,-100.00,SW,231,0.0,0.0,82,0.00,,,0.00,0.000000,,2013-01-24 08:02:00,
2013-01-24 03:33:00,3.0,-1.0,-100.00,West,270,0.0,0.0,81,0.00,,,0.00,0.000000,,2013-01-24 08:33:00,
2013-01-24 03:43:00,3.0,-1.0,-100.00,West,270,0.0,0.0,81,0.00,,,0.00,0.000000,,2013-01-24 08:43:00,
2013-01-24 03:53:00,3.0,-1.0,-100.00,West,270,0.0,0.0,81,0.00,,,0.00,0.000000,,2013-01-24 08:53:00,
2013-01-24 04:03:00,3.0,-1.0,-100.00,West,270,0.0,0.0,81,0.00,,,0.00,0.000000,,2013-01-24 09:03:00,
2013-01-24 04:34:00,3.0,-1.0,-100.00,SSW,194,0.0,0.0,83,0.00,,,0.00,0.000000,,2013-01-24 09:34:00,
2013-01-24 04:43:00,3.0,-1.0,-100.00,SSW,194,0.0,0.0,83,0.00,,,0.00,0.000000,,2013-01-24 09:43:00,
2013-01-24 04:53:00,3.0,-1.0,-100.00,SSW,194,0.0,0.0,83,0.00,,,0.00,0.000000,,2013-01-24 09:53:00,
2013-01-24 05:03:00,3.0,-1.0,-100.00,SSW,194,0.0,0.0,83,0.00,,,0.00,0.000000,,2013-01-24 10:03:00,
2013-01-24 05:34:00,4.0,0.0,-100.00,North,353,0.0,0.0,83,0.00,,,0.00,0.000000,,2013-01-24 10:34:00,
2013-01-24 05:43:00,4.0,0.0,-100.00,North,353,0.0,0.0,83,0.00,,,0.00,0.000000,,2013-01-24 10:43:00,
2013-01-24 05:53:00,4.0,0.0,-100.00,North,353,0.0,0.0,83,0.00,,,0.00,0.000000,,2013-01-24 10:53:00,
2013-01-24 06:03:00,4.0,0.0,-100.00,North,353,0.0,0.0,83,0.00,,,0.00,0.000000,,2013-01-24 11:03:00,
2013-01-24 06:34:00,3.0,-1.0,-100.00,NW,316,0.0,0.0,83,0.00,,,-99.99,0.000000,,2013-01-24 11:34:00,
2013-01-24 06:43:00,3.0,-1.0,-100.00,NW,316,0.0,0.0,83,0.00,,,-99.99,0.000000,,2013-01-24 11:43:00,
2013-01-24 06:53:00,3.0,-1.0,-100.00,NW,316,0.0,0.0,83,0.00,,,-99.99,0.000000,,2013-01-24 11:53:00,
2013-01-24 07:03:00,3.0,-1.0,-100.00,NW,316,0.0,0.0,83,0.00,,,-99.99,0.000000,,2013-01-24 12:03:00,
2013-01-24 07:33:00,2.0,-2.0,-100.00,WNW,297,1.0,6.0,83,0.00,,,0.00,0.000000,,2013-01-24 12:33:00,
2013-01-24 07:43:00,2.0,-2.0,-100.00,WNW,297,1.0,6.0,83,0.00,,,0.00,0.000000,,2013-01-24 12:43:00,
2013-01-24 07:53:00,2.0,-2.0,-100.00,WNW,297,1.0,6.0,83,0.00,,,0.00,0.000000,,2013-01-24 12:53:00,
2013-01-24 08:03:00,2.0,-2.0,-100.00,WNW,297,1.0,6.0,83,0.00,,,0.00,0.000000,,2013-01-24 13:03:00,
2013-01-24 08:33:00,2.0,-2.0,-100.00,NNW,331,1.0,7.0,83,0.00,,,0.00,6.000000,,2013-01-24 13:33:00,
2013-01-24 08:43:00,2.0,-2.0,-100.00,NNW,331,1.0,7.0,83,0.00,,,0.00,6.000000,,2013-01-24 13:43:00,
2013-01-24 08:53:00,2.0,-2.0,-100.00,NNW,331,1.0,7.0,83,0.00,,,0.00,6.000000,,2013-01-24 13:53:00,
2013-01-24 09:03:00,2.0,-2.0,-100.00,NNW,331,1.0,7.0,83,0.00,,,0.00,6.000000,,2013-01-24 14:03:00,
2013-01-24 09:33:00,9.0,2.0,-100.00,North,350,4.0,10.0,73,0.00,,,0.00,111.000000,,2013-01-24 14:33:00,
2013-01-24 09:43:00,9.0,2.0,-100.00,North,350,4.0,10.0,73,0.00,,,0.00,111.000000,,2013-01-24 14:43:00,
2013-01-24 09:54:00,9.0,2.0,-100.00,North,350,4.0,10.0,73,0.00,,,0.00,111.000000,,2013-01-24 14:54:00,
2013-01-24 10:04:00,9.0,2.0,-100.00,North,350,4.0,10.0,73,0.00,,,0.00,111.000000,,2013-01-24 15:04:00,
2013-01-24 10:33:00,13.0,3.0,-100.00,North,351,4.0,11.0,65,0.00,,,0.00,278.000000,,2013-01-24 15:33:00,
2013-01-24 10:43:00,13.0,3.0,-100.00,North,351,4.0,11.0,65,0.00,,,0.00,278.000000,,2013-01-24 15:43:00,
2013-01-24 10:53:00,13.0,3.0,-100.00,North,351,4.0,11.0,65,0.00,,,0.00,278.000000,,2013-01-24 15:53:00,
2013-01-24 11:04:00,13.0,3.0,-100.00,North,351,4.0,11.0,65,0.00,,,0.00,278.000000,,2013-01-24 16:04:00,
2013-01-24 11:33:00,16.0,4.0,-100.00,NW,324,5.0,13.0,59,0.00,,,0.00,482.000000,,2013-01-24 16:33:00,
2013-01-24 11:43:00,16.0,4.0,-100.00,NW,324,5.0,13.0,59,0.00,,,0.00,482.000000,,2013-01-24 16:43:00,
2013-01-24 12:03:00,16.0,4.0,-100.00,NW,324,5.0,13.0,59,0.00,,,0.00,482.000000,,2013-01-24 17:03:00,
2013-01-24 12:33:00,16.0,2.0,-100.00,NNW,344,7.0,16.0,54,0.00,,,0.00,452.000000,,2013-01-24 17:33:00,
2013-01-24 12:43:00,16.0,2.0,-100.00,NNW,344,7.0,16.0,54,0.00,,,0.00,452.000000,,2013-01-24 17:43:00,
2013-01-24 12:53:00,16.0,2.0,-100.00,NNW,344,7.0,16.0,54,0.00,,,0.00,452.000000,,2013-01-24 17:53:00,
2013-01-24 13:03:00,16.0,2.0,-100.00,NNW,344,7.0,16.0,54,0.00,,,0.00,452.000000,,2013-01-24 18:03:00,
2013-01-24 13:33:00,15.0,2.0,-100.00,NNW,333,6.0,18.0,56,0.00,,,0.00,271.000000,,2013-01-24 18:33:00,
2013-01-24 13:43:00,15.0,2.0,-100.00,NNW,333,6.0,18.0,56,0.00,,,0.00,271.000000,,2013-01-24 18:43:00,
2013-01-24 13:53:00,15.0,2.0,-100.00,NNW,333,6.0,18.0,56,0.00,,,0.00,271.000000,,2013-01-24 18:53:00,
2013-01-24 14:02:00,15.0,2.0,-100.00,NNW,333,6.0,18.0,56,0.00,,,0.00,271.000000,,2013-01-24 19:02:00,
2013-01-24 14:33:00,17.0,0.0,-100.00,NW,309,7.0,17.0,46,0.00,,,0.00,281.000000,,2013-01-24 19:33:00,
2013-01-24 14:42:00,17.0,0.0,-100.00,NW,309,7.0,17.0,46,0.00,,,0.00,281.000000,,2013-01-24 19:42:00,
2013-01-24 14:53:00,17.0,0.0,-100.00,NW,309,7.0,17.0,46,0.00,,,0.00,281.000000,,2013-01-24 19:53:00,
2013-01-24 15:02:00,17.0,0.0,-100.00,NW,309,7.0,17.0,46,0.00,,,0.00,281.000000,,2013-01-24 20:02:00,
2013-01-24 15:33:00,19.0,-1.0,-100.00,North,358,7.0,19.0,41,0.00,,,-99.99,353.000000,,2013-01-24 20:33:00,
2013-01-24 15:43:00,19.0,-1.0,-100.00,North,358,7.0,19.0,41,0.00,,,-99.99,353.000000,,2013-01-24 20:43:00,
2013-01-24 15:53:00,19.0,-1.0,-100.00,North,358,7.0,19.0,41,0.00,,,-99.99,353.000000,,2013-01-24 20:53:00,
2013-01-24 16:03:00,19.0,-1.0,-100.00,North,358,7.0,19.0,41,0.00,,,-99.99,353.000000,,2013-01-24 21:03:00,
2013-01-24 16:33:00,13.0,-1.0,-100.00,NNW,344,6.0,17.0,52,0.00,,,0.00,75.000000,,2013-01-24 21:33:00,
2013-01-24 16:43:00,13.0,-1.0,-100.00,NNW,344,6.0,17.0,52,0.00,,,0.00,75.000000,,2013-01-24 21:43:00,
2013-01-24 16:53:00,13.0,-1.0,-100.00,NNW,344,6.0,17.0,52,0.00,,,0.00,75.000000,,2013-01-24 21:53:00,
2013-01-24 17:03:00,13.0,-1.0,-100.00,NNW,344,6.0,17.0,52,0.00,,,0.00,75.000000,,2013-01-24 22:03:00,
2013-01-24 17:33:00,12.0,-7.0,-100.00,NNW,335,6.0,16.0,42,0.00,,,0.00,66.000000,,2013-01-24 22:33:00,
2013-01-24 17:42:00,12.0,-7.0,-100.00,NNW,335,6.0,16.0,42,0.00,,,0.00,66.000000,,2013-01-24 22:42:00,
2013-01-24 17:53:00,12.0,-7.0,-100.00,NNW,335,6.0,16.0,42,0.00,,,0.00,66.000000,,2013-01-24 22:53:00,
2013-01-24 18:03:00,12.0,-7.0,-100.00,NNW,335,6.0,16.0,42,0.00,,,0.00,66.000000,,2013-01-24 23:03:00,
2013-01-24 18:32:00,9.0,-6.0,-100.00,NNW,341,6.0,13.0,50,0.00,,,0.00,2.000000,,2013-01-24 23:32:00,
2013-01-24 18:43:00,9.0,-6.0,-100.00,NNW,341,6.0,13.0,50,0.00,,,0.00,2.000000,,2013-01-24 23:43:00,
2013-01-24 18:52:00,9.0,-6.0,-100.00,NNW,341,6.0,13.0,50,0.00,,,0.00,2.000000,,2013-01-24 23:52:00,
2013-01-24 19:02:00,9.0,-6.0,-100.00,NNW,341,6.0,13.0,50,0.00,,,0.00,2.000000,,2013-01-25 00:02:00,
2013-01-24 19:32:00,6.0,-7.0,-100.00,NNW,344,3.0,14.0,54,0.00,,,0.00,0.000000,,2013-01-25 00:32:00,
2013-01-24 19:42:00,6.0,-7.0,-100.00,NNW,344,3.0,14.0,54,0.00,,,0.00,0.000000,,2013-01-25 00:42:00,
2013-01-24 19:53:00,6.0,-7.0,-100.00,NNW,344,3.0,14.0,54,0.00,,,0.00,0.000000,,2013-01-25 00:53:00,
2013-01-24 20:02:00,6.0,-7.0,-100.00,NNW,344,3.0,14.0,54,0.00,,,0.00,0.000000,,2013-01-25 01:02:00,
2013-01-24 20:32:00,5.0,-6.0,-100.00,NNW,334,3.0,12.0,59,0.00,,,0.00,0.000000,,2013-01-25 01:32:00,
2013-01-24 20:43:00,5.0,-6.0,-100.00,NNW,334,3.0,12.0,59,0.00,,,0.00,0.000000,,2013-01-25 01:43:00,
2013-01-24 20:52:00,5.0,-6.0,-100.00,NNW,334,3.0,12.0,59,0.00,,,0.00,0.000000,,2013-01-25 01:52:00,
2013-01-24 21:03:00,5.0,-6.0,-100.00,NNW,334,3.0,12.0,59,0.00,,,0.00,0.000000,,2013-01-25 02:03:00,
2013-01-24 21:33:00,5.0,-5.0,-100.00,NNW,334,4.0,12.0,61,0.00,,,0.00,0.000000,,2013-01-25 02:33:00,
2013-01-24 21:43:00,5.0,-5.0,-100.00,NNW,334,4.0,12.0,61,0.00,,,0.00,0.000000,,2013-01-25 02:43:00,
2013-01-24 21:53:00,5.0,-5.0,-100.00,NNW,334,4.0,12.0,61,0.00,,,0.00,0.000000,,2013-01-25 02:53:00,
2013-01-24 22:02:00,5.0,-5.0,-100.00,NNW,334,4.0,12.0,61,0.00,,,0.00,0.000000,,2013-01-25 03:02:00,
2013-01-24 22:33:00,4.0,-5.0,-100.00,NW,315,3.0,12.0,65,0.00,,,0.00,0.000000,,2013-01-25 03:33:00,
2013-01-24 22:42:00,4.0,-5.0,-100.00,NW,315,3.0,12.0,65,0.00,,,0.00,0.000000,,2013-01-25 03:42:00,
2013-01-24 22:53:00,4.0,-5.0,-100.00,NW,315,3.0,12.0,65,0.00,,,0.00,0.000000,,2013-01-25 03:53:00,
2013-01-24 23:02:00,4.0,-5.0,-100.00,NW,315,3.0,12.0,65,0.00,,,0.00,0.000000,,2013-01-25 04:02:00,
2013-01-24 23:32:00,2.0,-6.0,-100.00,West,276,1.0,8.0,68,0.00,,,0.00,0.000000,,2013-01-25 04:32:00,
2013-01-24 23:42:00,2.0,-6.0,-100.00,West,276,1.0,8.0,68,0.00,,,0.00,0.000000,,2013-01-25 04:42:00,
2013-01-24 23:52:00,2.0,-6.0,-100.00,West,276,1.0,8.0,68,0.00,,,0.00,0.000000,,2013-01-25 04:52:00,